Location: Bathurst
(33.4193°S, 149.5775°E)
Time: 09:42:38
(UTC+10:00)

Vanguard 1 Rocket - Pass Details

Date: 22 June 2021
Orbit: 650 x 4226 km, 34.3° (Epoch: 02 August)

Event Time Altitude Azimuth Distance (km) Brightness Sun altitude
Rises 03:49:26 0° 352° (N) 8,069 12.2 -40.0°
Reaches altitude 10° 03:57:54 10° 7° (N) 7,341 12.1 -38.2°
Maximum altitude 04:13:34 20° 44° (NE) 6,459 12.1 -34.9°
Drops below altitude 10° 04:27:28 10° 82° (E) 6,619 12.6 -32.1°
Sets 04:34:04 0° 96° (E) 7,110 13.0 -30.7°
